BULGARIASAT-1

Last updated on Wed Sep 09 2026 00:03:01 GMT+0000 (Coordinated Universal Time)

1 42801U 17038A 26251.23164250 -.00000008 00000+0 00000+0 0 9990 2 42801 0.0337 252.9257 0003501 293.9435 245.7276 1.00280942 33674
UTC large
Height (km)
Speed (km/s)
/
Latitude / Longitude
Inclination (degrees)
Orbital Period (minutes)
Azimuth
Elevation
Range (km)
Doppler Factor

Next 0 passes for location: London (51.5072 / 0.1276)

No passes found over London.
BULGARIASAT-1